Simultaneous Nadir Overpasses (SNOs) Predictions

Prediction of SNOs between GOES-16 and METOP-A Satellite Orbit:

Table of predicted SNOs for the next 14.0 days since TLE Epoch: 3/4/2022
Index Date Time (GOES-16) GOES-16 Lat,Lon METOP-A Lat,Lon Distance(km) Time Diff (sec)
1 03/07/2022 00:58:08 -0.02, -75.19 0.59, -72.35 322.67 80
2 03/07/2022 13:17:47 0.02, -75.21 0.27, -76.45 140.58 80
3 03/10/2022 00:59:42 -0.02, -75.20 0.54, -72.60 295.44 80
4 03/10/2022 13:19:31 0.02, -75.22 0.36, -76.73 172.04 80
5 03/13/2022 01:01:17 -0.02, -75.21 0.50, -72.84 269.17 80
6 03/13/2022 13:21:14 0.03, -75.23 0.43, -77.00 201.92 80
7 03/16/2022 01:02:51 -0.03, -75.23 0.46, -73.09 244.22 80
8 03/16/2022 13:22:55 0.03, -75.26 0.46, -77.28 229.78 80
